SOYUZ-MS 20

Last updated on Sun Dec 19 2021 00:02:03 GMT+0000 (Coordinated Universal Time)

1 49922U 21119A 21352.56953225 .00304746 00000+0 53258-2 0 9998 2 49922 51.6380 151.0053 0004327 331.9982 69.4519 15.49004231317179

Satellite not in orbit